Weather History for KANE - November, 2012

Change the Weather History Date:

Monday, November 26, 2012

  Actual Average Record
Temperature  
Mean Temperature 16 °F -  
Max Temperature 23 °F 35 °F 57 °F (1998)
Min Temperature 10 °F 21 °F -4 °F (1996)
Degree Days  
Heating Degree Days 48    
Moisture  
Dew Point 9 °F    
Average Humidity 77    
Maximum Humidity 86    
Minimum Humidity 54    
Precipitation  
Precipitation 0.00 in - - ()
Sea Level Pressure  
Sea Level Pressure 30.29 in    
Wind  
Wind Speed 9 mph (West)    
Max Wind Speed 15 mph    
Max Gust Speed 17 mph    
Visibility 10 miles    
Events Snow    
Averages and records for this station are not official NWS values.
T = Trace of Precipitation, MM = Missing Value Source: NWS Daily Summary

Daily Weather History Graph

Daily Weather History Graph

Search for Another Location

Airport or City:

Trip Planner

Search our weather history database for the weather conditions in past years. The results will help you decide how hot, cold, wet, or windy it might be!

Date:

Astronomy

Nov. 26, 2012 Rise Set
Actual Time 7:25 AM CST 4:34 PM CST
Civil Twilight 6:53 AM CST 5:07 PM CST
Nautical Twilight 6:16 AM CST 5:43 PM CST
Astronomical Twilight 5:41 AM CST 6:18 PM CST
Moon 3:29 PM CST (11/26) 5:33 AM CST (11/26)
Length of Visible Light 10h 14m
Length of Day
9h 08m
Waxing Gibbous, 97% of the Moon is Illuminated
Nov 26
Waxing Gibbous
Nov 28
Full
Dec 6
Last Quarter
Dec 13
New
Dec 19
First Quarter

Hourly Weather History & Observations

Time (CST) Temp. Windchill Dew Point Humidity Pressure Visibility Wind Dir Wind Speed Gust Speed Precip Events Conditions
12:14 AM 23.0 °F 11.7 °F 12.2 °F 63% 30.15 in 10.0 mi NW 11.5 mph - N/A   Mostly Cloudy
12:34 AM 21.2 °F 8.3 °F 12.2 °F 68% 30.16 in 10.0 mi NW 13.8 mph - N/A   Scattered Clouds
12:54 AM 19.4 °F 5.5 °F 12.2 °F 74% 30.17 in 10.0 mi WNW 15.0 mph - N/A   Clear
1:14 AM 19.4 °F 6.6 °F 12.2 °F 74% 30.17 in 10.0 mi WNW 12.7 mph - N/A   Clear
1:33 AM 19.4 °F 7.9 °F 12.2 °F 74% 30.18 in 10.0 mi WNW 10.4 mph 17.3 mph N/A   Clear
1:54 AM 17.6 °F 4.3 °F 10.4 °F 73% 30.19 in 10.0 mi NW 12.7 mph - N/A   Clear
2:14 AM 17.6 °F 4.3 °F 10.4 °F 73% 30.20 in 10.0 mi NW 12.7 mph 16.1 mph N/A   Clear
2:33 AM 15.8 °F 2.7 °F 10.4 °F 79% 30.22 in 10.0 mi WNW 11.5 mph - N/A   Clear
2:54 AM 15.8 °F 2.7 °F 10.4 °F 79% 30.22 in 10.0 mi WNW 11.5 mph - N/A   Scattered Clouds
3:14 AM 14.0 °F 3.9 °F 8.6 °F 79% 30.22 in 10.0 mi WNW 6.9 mph - N/A   Scattered Clouds
3:33 AM 14.0 °F 1.2 °F 8.6 °F 79% 30.23 in 10.0 mi WNW 10.4 mph - N/A   Mostly Cloudy
3:54 AM 14.0 °F 2.0 °F 8.6 °F 79% 30.25 in 10.0 mi WNW 9.2 mph - N/A   Overcast
4:14 AM 15.8 °F 4.2 °F 10.4 °F 79% 30.25 in 10.0 mi NW 9.2 mph - N/A Snow Light Snow
4:34 AM 15.8 °F 3.4 °F 10.4 °F 79% 30.25 in 10.0 mi NW 10.4 mph - N/A Snow Light Snow
4:54 AM 15.8 °F 5.1 °F 8.6 °F 73% 30.26 in 10.0 mi NW 8.1 mph - N/A Snow Light Snow
5:14 AM 14.0 °F 2.9 °F 8.6 °F 79% 30.27 in 10.0 mi WNW 8.1 mph - N/A Snow Light Snow
5:34 AM 14.0 °F 2.9 °F 8.6 °F 79% 30.27 in 10.0 mi NW 8.1 mph - N/A Snow Light Snow
5:54 AM 12.2 °F -0.2 °F 8.6 °F 85% 30.28 in 10.0 mi NW 9.2 mph - N/A Snow Light Snow
6:14 AM 12.2 °F 2.9 °F 8.6 °F 85% 30.29 in 10.0 mi WNW 5.8 mph - N/A Snow Light Snow
6:34 AM 10.4 °F -0.4 °F 6.8 °F 85% 30.30 in 10.0 mi WNW 6.9 mph - N/A   Mostly Cloudy
6:50 AM 10.4 °F -2.4 °F 6.8 °F 85% 30.31 in 10.0 mi WNW 9.2 mph - N/A   Scattered Clouds
6:54 AM 10.4 °F -0.4 °F 6.8 °F 85% 30.31 in 10.0 mi WNW 6.9 mph - N/A   Scattered Clouds
7:45 AM 10.4 °F -0.4 °F 6.8 °F 85% 30.34 in 10.0 mi West 6.9 mph - N/A   Partly Cloudy
8:50 AM 10.4 °F -2.4 °F 6.8 °F 85% 30.37 in 10.0 mi WNW 9.2 mph - N/A   Clear
9:45 AM 12.2 °F 1.7 °F 6.8 °F 79% 30.39 in 10.0 mi WNW 6.9 mph - N/A   Clear
10:50 AM 15.8 °F 5.1 °F 6.8 °F 68% 30.39 in 10.0 mi WNW 8.1 mph - N/A   Clear
12:45 PM 19.4 °F 10.4 °F 8.6 °F 63% 30.39 in 10.0 mi WNW 6.9 mph - N/A   Clear
2:55 PM 21.2 °F 13.6 °F 6.8 °F 54% 30.36 in 10.0 mi WSW 5.8 mph - N/A   Clear
3:45 PM 19.4 °F 11.5 °F 8.6 °F 63% 30.38 in 10.0 mi West 5.8 mph - N/A   Clear
5:45 PM 19.4 °F - 8.6 °F 63% 30.38 in 10.0 mi Calm Calm - N/A   Clear
6:45 PM 15.8 °F - 8.6 °F 73% 30.38 in 10.0 mi Calm Calm - N/A   Clear
7:45 PM 12.2 °F 6.1 °F 8.6 °F 85% 30.36 in 10.0 mi SSW 3.5 mph - N/A   Clear
8:45 PM 12.2 °F - 8.6 °F 85% 30.35 in 10.0 mi Calm Calm - N/A   Clear
9:14 PM 14.0 °F 8.2 °F 8.6 °F 79% 30.34 in 10.0 mi SSW 3.5 mph - N/A   Clear
9:34 PM 14.0 °F 8.2 °F 8.6 °F 79% 30.34 in 10.0 mi SSW 3.5 mph - N/A   Clear
9:54 PM 12.2 °F 4.3 °F 8.6 °F 85% 30.33 in 10.0 mi South 4.6 mph - N/A   Clear
10:14 PM 15.8 °F - 10.4 °F 79% 30.33 in 10.0 mi Calm Calm - N/A   Clear
10:34 PM 14.0 °F 6.5 °F 10.4 °F 86% 30.32 in 10.0 mi South 4.6 mph - N/A   Clear
10:54 PM 15.8 °F 8.6 °F 10.4 °F 79% 30.32 in 10.0 mi South 4.6 mph - N/A   Clear
11:14 PM 15.8 °F 6.1 °F 10.4 °F 79% 30.32 in 10.0 mi South 6.9 mph - N/A   Scattered Clouds
11:34 PM 17.6 °F 7.3 °F 10.4 °F 73% 30.31 in 10.0 mi South 8.1 mph - N/A   Scattered Clouds
11:54 PM 19.4 °F 9.5 °F 10.4 °F 68% 30.31 in 10.0 mi SSW 8.1 mph - N/A   Mostly Cloudy